Weather History for St. Joseph, MO

Change the Weather History Date:

Sunday, November 3, 2013

  Actual Average Record
Temperature  
Mean Temperature 45 °F 48 °F  
Max Temperature 60 °F 59 °F 82 °F (1978)
Min Temperature 29 °F 36 °F 9 °F (1991)
Degree Days  
Heating Degree Days 20 17  
Month to date heating degree days 55 50  
Since 1 July heating degree days 460 469  
Cooling Degree Days 0 0  
Month to date cooling degree days 0 0  
Year to date cooling degree days 1285 1220  
Moisture  
Dew Point 33 °F    
Average Humidity 69    
Maximum Humidity 100    
Minimum Humidity 37    
Precipitation  
Precipitation 0.00 in 0.09 in 1.48 in (1938)
Month to date precipitation 0.06 0.26  
Year to date precipitation 28.95 32.79  
Sea Level Pressure  
Sea Level Pressure 30.04 in    
Wind  
Wind Speed 14 mph (SSE)    
Max Wind Speed 26 mph    
Max Gust Speed 35 mph    
Visibility 9 miles    
Events      
T = Trace of Precipitation, MM = Missing Value Source: NWS Daily Summary

Daily Weather History Graph

Daily Weather History Graph

Search for Another Location

Airport:

Trip Planner

Search our weather history database for the weather conditions in past years. The results will help you decide how hot, cold, wet, or windy it might be!

Date:

Astronomy

Nov. 03, 2013 Rise Set
Actual Time 6:50 AM CST 5:14 PM CST
Civil Twilight 6:22 AM CST 5:43 PM CST
Nautical Twilight 5:50 AM CST 6:15 PM CST
Astronomical Twilight 5:19 AM CST 6:46 PM CST
Moon 6:55 AM CST (11/3) 5:30 PM CST (11/3)
Length of Visible Light 11h 20m
Length of Day
10h 24m
New Moon, 0% of the Moon is Illuminated
Nov 3
New Moon
Nov 9
First Quarter
Nov 17
Full
Nov 25
Last Quarter
Dec 2
New

Hourly Weather History & Observations

Time (CST) Temp. Windchill Dew Point Humidity Pressure Visibility Wind Dir Wind Speed Gust Speed Precip Events Conditions
12:53 AM 36.0 °F - 33.1 °F 89% 30.17 in 10.0 mi Calm Calm - N/A   Clear
1:53 AM 35.1 °F - 32.0 °F 89% 30.17 in 10.0 mi Calm Calm - N/A   Clear
1:53 AM 30.9 °F - 30.0 °F 96% 30.17 in 9.0 mi Calm Calm - N/A   Clear
2:44 AM 32.0 °F - 28.4 °F 87% 30.15 in 1.8 mi Calm Calm - N/A   Clear
2:53 AM 32.0 °F - 30.0 °F 92% 30.16 in 0.8 mi Calm Calm - N/A   Clear
3:01 AM 30.2 °F - 28.4 °F 93% 30.15 in 2.0 mi Calm Calm - N/A   Clear
3:08 AM 28.4 °F - 28.4 °F 100% 30.15 in 10.0 mi Calm Calm - N/A   Clear
3:53 AM 34.0 °F 29.8 °F 30.0 °F 85% 30.14 in 10.0 mi SSE 4.6 mph - N/A   Clear
4:53 AM 32.0 °F - 30.0 °F 92% 30.15 in 10.0 mi Calm Calm - N/A   Clear
5:53 AM 35.1 °F 27.9 °F 30.0 °F 82% 30.14 in 10.0 mi SSE 9.2 mph - N/A   Clear
6:53 AM 39.0 °F 31.8 °F 32.0 °F 76% 30.14 in 10.0 mi SSE 11.5 mph - N/A   Clear
7:53 AM 43.0 °F 36.0 °F 33.1 °F 68% 30.13 in 10.0 mi SSE 13.8 mph - N/A   Clear
8:53 AM 48.0 °F - 34.0 °F 58% 30.13 in 10.0 mi South 13.8 mph - N/A   Clear
9:53 AM 53.1 °F - 34.0 °F 48% 30.10 in 10.0 mi South 19.6 mph 27.6 mph N/A   Clear
10:53 AM 55.0 °F - 33.1 °F 43% 30.07 in 10.0 mi South 18.4 mph 27.6 mph N/A   Clear
11:53 AM 57.0 °F - 32.0 °F 39% 30.04 in 10.0 mi SSE 23.0 mph 29.9 mph N/A   Clear
12:53 PM 59.0 °F - 34.0 °F 39% 30.00 in 10.0 mi South 17.3 mph 29.9 mph N/A   Clear
1:53 PM 59.0 °F - 33.1 °F 38% 29.96 in 10.0 mi SSE 20.7 mph 32.2 mph N/A   Clear
2:53 PM 59.0 °F - 33.1 °F 38% 29.92 in 10.0 mi SSE 24.2 mph 32.2 mph N/A   Clear
3:53 PM 57.9 °F - 34.0 °F 41% 29.92 in 10.0 mi SSE 18.4 mph 27.6 mph N/A   Clear
4:53 PM 57.0 °F - 35.1 °F 44% 29.91 in 10.0 mi SSE 18.4 mph - N/A   Clear
5:53 PM 55.9 °F - 36.0 °F 47% 29.91 in 10.0 mi SSE 17.3 mph - N/A   Clear
6:53 PM 55.0 °F - 36.0 °F 49% 29.90 in 10.0 mi SSE 18.4 mph 25.3 mph N/A   Clear
7:53 PM 55.0 °F - 37.9 °F 53% 29.87 in 10.0 mi SSE 24.2 mph 33.4 mph N/A   Clear
8:53 PM 55.0 °F - 37.0 °F 51% 29.88 in 10.0 mi South 20.7 mph 31.1 mph N/A   Clear
9:53 PM 54.0 °F - 37.0 °F 53% 29.87 in 10.0 mi South 15.0 mph 25.3 mph N/A   Clear
10:53 PM 55.0 °F - 37.9 °F 53% 29.88 in 10.0 mi South 19.6 mph 27.6 mph N/A   Clear